Flight Information

DEPARTURE
ONTARIO, CA
Elevation:
944
Runways:
8L/26R - 12197x150 - CONC-G
8R/26L - 10200x150 - CONC-G
Active PE Departure:
8R - 8L
Current PE ATIS:
N
Altimeter:
30.17
Remarks:
V F R DEPARTURES CONTACT CLEARANCE DELIVERY, ADVISE ON COURSE HEADING, ALTITUDE, AND IF FLIGHT FOLLOWING IS REQUESTED.
ATIS:
124.25 909-605-0056
Clearance Delivery:
118.1
Ground:
121.9
Tower:
120.6
DESTINATION
,
Elevation:
TPA:
1000 (est.)


6754.1 NM74° True-14° Var59° HDG

Flight Plan:
(click to file on line)

1. Type
2. Aircraft Identification
3. Aircraft Type / Special Equipment
4. True Airspeed
kts
5. Departure Airport
(ICAO code)
6. Arriving Airport
(ICAO code)
7. Cruising Altitude
ft
8. Alternate Airport
(ICAO code)
9. Route of Flight
10. Remarks


00:00:00 Departure ATIS: Destination ATIS:

Clearance Limit:
Route:
Altitude: Expect in minutes
Frequency:
Transponder: (7500 Hijack / 7600 Lost Comms / 7700 Emergency)


KONT 282253Z 08008KT 10SM SCT220 BKN250 22/M16 A3017 RMK AO2 SLP211 T02171156
Time: 2022-01-28T22:53:00Z
1643412534
Winds: 80 @ 8 kts
Visibility: 10.0 sm
Clouds (AGL): SCT 22000
BKN 25000
Temperature: 21.7 C
Dew Point: -15.6 C
Pressure: 30.171259 in Hgbr


Notes:

Data extracted from FAA Digital Chart Supplement. Effective: 0901Z Thursday, DEC 2, 2021 to 0901Z Thursday, JAN 27, 2022
Current ATIS data is provided courtisy of PilotEdge.